QPF
0.00 0.00 0.00 0.00 0.00 0.00 0.00 0.00 0.00 0.00 0.00 0.00 0.00 0.00 0.00 0.00 0.00 0.00 0.00 0.00 0.00 0.00 0.00 0.00 0.01 0.01 0.00 0.00 0.00 0.00 0.00 0.00 0.00 0.00 0.00 0.00 0.00 0.00 0.00 0.00 0.00 0.00 0.00 0.00
0.00 0.00 0.00 0.00 0.00 0.00 0.00 0.00 0.00 0.00 0.00 0.00 0.00 0.00 0.00 0.00 0.00 0.00 0.00 0.00 0.00 0.00 0.00 0.00 0.00 0.00 0.01 0.01 0.00 0.00 0.00 0.00 0.00 0.00 0.00 0.00 0.00 0.00 0.00 0.00 0.00 0.00 0.00 0.00
0.00 0.00 0.00 0.00 0.00 0.00 0.00 0.00 0.00 0.00 0.00 0.00 0.00 0.00 0.00 0.00 0.00 0.00 0.00 0.00 0.00 0.00 0.00 0.00 0.00 0.00 0.00 0.00 0.00 0.00 0.00 0.00 0.00 0.00 0.00 0.00 0.00 0.00 0.00 0.00 0.00 0.00 0.00 0.00
0.00 0.00 0.00 0.00 0.00 0.00 0.00 0.00 0.00 0.00 0.00 0.00 0.00 0.00 0.00 0.00 0.00 0.00 0.00 0.00 0.00 0.00 0.00 0.00 0.00 0.00 0.00 0.00 0.00 0.00 0.00 0.00 0.00 0.00 0.00 0.00 0.00 0.00 0.00 0.00 0.00 0.00 0.00 0.00
0.00 0.00 0.00 0.00 0.00 0.00 0.00 0.00 0.00 0.00 0.00 0.00 0.00 0.00 0.00 0.00 0.00 0.00 0.00 0.00 0.00 0.00 0.00 0.00 0.00 0.00 0.00 0.00 0.00 0.00 0.00 0.00 0.00 0.00 0.00 0.00 0.00 0.00 0.00 0.00 0.00 0.00 0.00 0.00
0.00 0.00 0.00 0.00 0.00 0.00 0.00 0.00 0.00 0.00 0.00 0.00 0.00 0.00 0.00 0.00 0.00 0.00 0.00 0.00 0.00 0.00 0.00 0.00 0.00 0.00 0.00 0.00 0.00 0.00 0.00 0.00 0.00 0.00 0.00 0.00 0.00 0.00 0.00 0.00 0.00 0.00 0.00 0.00
0.00 0.00 0.00 0.00 0.00 0.00 0.00 0.00 0.00 0.00 0.00 0.00 0.00 0.00 0.00 0.00 0.00 0.00 0.00 0.00 0.00 0.00 0.00 0.00 0.00 0.00 0.00 0.00 0.00 0.00 0.00 0.00 0.00 0.00 0.00 0.00 0.00 0.00 0.00 0.00 0.00 0.00 0.00 0.00
0.00 0.00 0.00 0.00 0.00 0.00 0.00 0.00 0.00 0.00 0.00 0.00 0.00 0.00 0.00 0.00 0.00 0.00 0.00 0.00 0.00 0.00 0.00 0.00 0.00 0.00 0.00 0.00 0.00 0.00 0.00 0.00 0.00 0.00 0.00 0.00 0.00 0.00 0.00 0.00 0.00 0.00 0.00 0.00
0.00 0.00 0.00 0.00 0.00 0.00 0.00 0.00 0.00 0.00 0.00 0.00 0.00 0.00 0.00 0.00 0.00 0.00 0.00 0.00 0.00 0.00 0.00 0.00 0.00 0.00 0.00 0.00 0.00 0.00 0.00 0.00 0.00 0.00 0.00 0.00 0.00 0.00 0.00 0.00 0.00 0.00 0.00 0.00
0.00 0.00 0.00 0.00 0.00 0.00 0.00 0.00 0.00 0.00 0.00 0.00 0.00 0.00 0.00 0.00 0.00 0.00 0.00 0.00 0.00 0.00 0.00 0.00 0.00 0.00 0.00 0.00 0.00 0.00 0.00 0.00 0.00 0.00 0.00 0.00 0.00 0.00 0.00 0.00 0.00 0.00 0.00 0.00
0.00 0.00 0.00 0.00 0.00 0.00 0.00 0.00 0.00 0.00 0.00 0.00 0.00 0.00 0.00 0.00 0.00 0.00 0.00 0.00 0.00 0.00 0.00 0.00 0.00 0.00 0.00 0.00 0.00 0.00 0.00 0.00 0.00 0.00 0.00 0.00 0.00 0.00 0.00 0.00 0.00 0.00 0.00 0.00
0.00 0.00 0.00 0.00 0.00 0.00 0.00 0.00 0.00 0.00 0.00 0.00 0.00 0.00 0.00 0.00 0.00 0.00 0.00 0.00 0.00 0.00 0.00 0.00 0.00 0.00 0.00 0.00 0.00 0.00 0.00 0.00 0.00 0.00 0.00 0.00 0.00 0.00 0.00 0.00 0.00 0.00 0.00 0.00
0.00 0.00 0.00 0.00 0.00 0.00 0.00 0.00 0.00 0.00 0.00 0.00 0.00 0.00 0.00 0.00 0.00 0.00 0.00 0.00 0.00 0.00 0.00 0.00 0.00 0.00 0.00 0.00 0.00 0.00 0.00 0.00 0.00 0.00 0.00 0.00 0.00 0.00 0.00 0.00 0.00 0.00 0.00 0.00
0.00 0.00 0.00 0.00 0.00 0.00 0.00 0.00 0.00 0.00 0.00 0.00 0.00 0.00 0.00 0.00 0.00 0.00 0.00 0.00 0.00 0.00 0.00 0.00 0.00 0.00 0.00 0.00 0.00 0.00 0.00 0.01 0.01 0.00 0.00 0.00 0.00 0.00 0.00 0.00 0.00 0.00 0.00 0.00
0.00 0.00 0.00 0.00 0.00 0.00 0.00 0.00 0.00 0.00 0.00 0.00 0.00 0.00 0.00 0.00 0.00 0.00 0.00 0.00 0.00 0.00 0.00 0.00 0.00 0.00 0.00 0.00 0.00 0.00 0.00 0.00 0.00 0.00 0.00 0.01 0.01 0.00 0.00 0.01 0.00 0.00 0.00 0.00
0.00 0.00 0.00 0.00 0.00 0.00 0.00 0.00 0.00 0.00 0.00 0.00 0.00 0.00 0.00 0.00 0.00 0.00 0.00 0.00 0.00 0.00 0.00 0.00 0.00 0.00 0.00 0.00 0.00 0.00 0.00 0.01 0.00 0.00 0.00 0.01 0.00 0.01 0.01 0.01 0.01 0.01 0.00 0.00
0.00 0.00 0.00 0.00 0.00 0.00 0.00 0.00 0.00 0.00 0.00 0.00 0.00 0.00 0.00 0.00 0.00 0.00 0.00 0.00 0.00 0.00 0.00 0.00 0.00 0.00 0.00 0.00 0.00 0.01 0.00 0.00 0.00 0.00 0.00 0.00 0.01 0.01 0.01 0.01 0.01 0.01 0.00 0.00
0.00 0.00 0.00 0.00 0.00 0.00 0.00 0.00 0.00 0.00 0.00 0.00 0.00 0.00 0.00 0.00 0.00 0.00 0.00 0.00 0.00 0.00 0.00 0.00 0.00 0.00 0.00 0.00 0.00 0.01 0.00 0.00 0.00 0.01 0.00 0.00 0.01 0.01 0.01 0.01 0.01 0.01 0.01 0.02
0.00 0.00 0.00 0.00 0.00 0.00 0.00 0.00 0.00 0.00 0.00 0.00 0.00 0.00 0.00 0.00 0.00 0.00 0.00 0.00 0.00 0.00 0.00 0.00 0.00 0.00 0.00 0.00 0.00 0.01 0.01 0.01 0.00 0.00 0.00 0.00 0.00 0.01 0.02 0.02 0.02 0.01 0.02 0.04
0.00 0.00 0.00 0.00 0.00 0.00 0.00 0.00 0.00 0.00 0.00 0.00 0.00 0.00 0.00 0.00 0.00 0.00 0.00 0.00 0.00 0.00 0.00 0.00 0.00 0.00 0.00 0.00 0.00 0.00 0.00 0.00 0.01 0.00 0.00 0.00 0.01 0.01 0.01 0.01 0.01 0.01 0.01 0.02
0.00 0.00 0.00 0.00 0.00 0.00 0.00 0.00 0.00 0.00 0.00 0.00 0.00 0.00 0.00 0.00 0.00 0.00 0.00 0.00 0.00 0.00 0.00 0.00 0.00 0.00 0.00 0.00 0.00 0.00 0.01 0.01 0.01 0.01 0.01 0.01 0.01 0.00 0.00 0.01 0.01 0.01 0.02 0.01
0.00 0.00 0.00 0.00 0.00 0.00 0.00 0.00 0.00 0.00 0.00 0.00 0.00 0.00 0.00 0.00 0.00 0.00 0.00 0.00 0.00 0.00 0.00 0.00 0.00 0.00 0.00 0.00 0.00 0.00 0.01 0.01 0.00 0.00 0.00 0.01 0.01 0.01 0.01 0.01 0.01 0.02 0.02 0.01
0.00 0.00 0.00 0.00 0.00 0.00 0.00 0.00 0.00 0.00 0.00 0.00 0.00 0.00 0.00 0.00 0.00 0.00 0.00 0.00 0.00 0.01 0.01 0.00 0.00 0.00 0.00 0.00 0.00 0.00 0.00 0.01 0.01 0.00 0.01 0.02 0.02 0.01 0.01 0.01 0.01 0.02 0.02 0.02
0.00 0.00 0.00 0.00 0.00 0.00 0.00 0.00 0.00 0.00 0.00 0.00 0.00 0.00 0.00 0.00 0.00 0.00 0.00 0.00 0.00 0.01 0.00 0.00 0.00 0.00 0.00 0.00 0.00 0.00 0.00 0.01 0.01 0.01 0.01 0.02 0.01 0.01 0.01 0.01 0.01 0.01 0.02 0.02
0.00 0.00 0.00 0.00 0.00 0.00 0.00 0.00 0.00 0.00 0.00 0.00 0.00 0.00 0.00 0.00 0.00 0.00 0.00 0.00 0.01 0.01 0.00 0.00 0.00 0.00 0.00 0.00 0.00 0.00 0.00 0.01 0.02 0.02 0.01 0.01 0.01 0.01 0.01 0.01 0.01 0.02 0.02 0.02
0.00 0.00 0.00 0.00 0.00 0.00 0.00 0.00 0.00 0.00 0.00 0.00 0.00 0.00 0.00 0.00 0.00 0.00 0.00 0.00 0.00 0.01 0.00 0.00 0.00 0.00 0.00 0.00 0.00 0.00 0.00 0.01 0.01 0.02 0.02 0.02 0.01 0.01 0.01 0.01 0.01 0.01 0.02 0.04
0.00 0.00 0.00 0.00 0.00 0.00 0.00 0.00 0.00 0.00 0.00 0.00 0.00 0.00 0.00 0.00 0.01 0.01 0.00 0.00 0.00 0.01 0.01 0.00 0.00 0.00 0.00 0.00 0.00 0.00 0.00 0.01 0.01 0.02 0.02 0.02 0.02 0.01 0.01 0.01 0.01 0.01 0.02 0.02
MSLP
1024.30 1024.08 1023.85 1023.05 1022.37 1021.65 1021.16 1021.04 1020.86 1021.34 1020.58 1020.06 1019.48 1018.94 1018.64 1018.52 1018.14 1017.89 1017.84 1017.66 1017.80 1017.25 1017.02 1016.93 1016.48 1015.79 1015.56 1015.37 1015.16 1014.87 1014.60 1014.44 1014.31 1013.82 1013.49 1013.21 1012.86 1012.87 1012.78 1012.31 1011.81 1011.58 1011.09 1010.61
1024.68 1024.14 1023.67 1022.86 1022.20 1021.74 1021.34 1021.23 1021.23 1021.09 1020.70 1020.43 1019.95 1019.38 1019.01 1018.64 1018.30 1018.03 1017.91 1017.52 1017.26 1017.01 1017.09 1017.03 1016.66 1016.61 1016.19 1015.95 1015.72 1015.31 1015.10 1015.08 1014.78 1014.53 1014.32 1014.07 1013.51 1013.20 1012.91 1012.58 1012.25 1011.76 1011.55 1011.22
1024.90 1024.40 1023.56 1023.01 1022.00 1021.64 1021.42 1021.33 1021.22 1021.01 1021.07 1020.73 1020.20 1019.84 1019.52 1018.98 1018.72 1018.50 1018.14 1017.76 1017.48 1017.21 1017.18 1016.98 1016.80 1016.68 1016.56 1016.54 1015.75 1015.69 1015.44 1015.25 1015.14 1014.75 1014.46 1014.22 1013.92 1013.68 1013.30 1013.05 1012.63 1012.32 1011.99 1011.73
1025.43 1024.57 1023.67 1022.17 1021.76 1021.53 1021.36 1021.48 1021.40 1021.30 1021.14 1020.91 1020.62 1020.20 1019.84 1019.41 1019.18 1019.00 1018.63 1018.30 1018.04 1017.77 1017.53 1017.39 1017.15 1016.97 1016.82 1016.55 1015.63 1015.53 1015.69 1015.28 1015.32 1015.17 1014.66 1014.51 1014.34 1013.77 1013.88 1013.19 1012.72 1012.62 1012.28 1011.85
1025.90 1024.73 1023.22 1022.04 1021.45 1021.25 1021.11 1021.36 1021.34 1021.28 1021.19 1021.01 1020.74 1020.35 1019.56 1019.79 1019.73 1019.56 1019.42 1019.02 1018.65 1018.37 1018.11 1017.90 1017.77 1017.64 1016.93 1016.21 1016.11 1015.70 1015.48 1015.04 1015.00 1015.16 1014.85 1014.47 1013.85 1013.97 1013.97 1013.36 1013.09 1012.59 1012.54 1012.00
1025.94 1024.62 1022.65 1021.00 1020.96 1021.06 1021.27 1021.00 1021.14 1021.24 1021.20 1021.15 1020.93 1020.30 1019.90 1020.30 1020.17 1019.79 1019.69 1019.52 1019.22 1018.92 1018.57 1018.25 1018.05 1017.56 1017.07 1016.85 1016.49 1015.94 1016.14 1015.75 1015.37 1014.76 1014.26 1013.62 1013.49 1013.78 1013.42 1012.95 1012.67 1012.17 1012.10 1011.52
1025.13 1023.91 1021.92 1020.73 1020.73 1021.09 1021.22 1021.05 1020.93 1021.05 1021.06 1021.17 1021.10 1021.13 1020.96 1020.90 1020.53 1020.39 1020.06 1019.52 1019.17 1018.87 1018.70 1018.58 1018.24 1017.91 1017.51 1017.03 1016.66 1016.60 1016.52 1016.03 1015.23 1014.39 1014.12 1013.54 1013.49 1013.57 1013.16 1012.55 1012.00 1011.72 1011.49 1010.62
1024.18 1023.18 1021.34 1020.33 1020.62 1020.57 1020.44 1020.49 1020.68 1020.84 1021.02 1021.21 1021.32 1021.34 1021.32 1021.19 1020.90 1020.59 1020.17 1019.61 1019.25 1018.91 1018.62 1018.41 1018.25 1018.01 1017.71 1017.35 1017.35 1017.13 1016.56 1015.81 1015.26 1015.08 1014.84 1014.22 1013.64 1013.00 1012.86 1012.47 1011.92 1011.26 1011.00 1010.22
1021.91 1020.86 1020.16 1020.00 1019.83 1019.90 1020.28 1020.49 1020.65 1020.85 1021.06 1021.32 1021.43 1021.47 1021.62 1021.49 1021.27 1020.92 1020.41 1019.90 1019.48 1019.09 1018.75 1018.56 1018.50 1018.37 1017.94 1017.66 1017.42 1016.97 1016.44 1015.86 1015.31 1014.79 1014.39 1014.10 1013.72 1013.28 1012.87 1012.44 1011.81 1010.88 1010.49 1009.98
1020.80 1019.70 1019.79 1019.77 1019.90 1020.01 1020.19 1020.35 1020.56 1020.87 1021.22 1021.56 1021.73 1021.71 1021.67 1021.53 1021.37 1021.12 1020.59 1020.06 1019.64 1019.38 1018.98 1018.60 1018.60 1018.41 1018.06 1017.57 1017.21 1016.82 1016.24 1015.70 1015.16 1014.73 1014.42 1014.06 1013.46 1013.02 1012.75 1012.11 1011.65 1011.23 1010.61 1009.82
1019.79 1019.57 1019.65 1019.44 1019.51 1019.82 1020.10 1020.33 1020.65 1021.03 1021.36 1021.62 1021.70 1021.70 1021.73 1021.41 1021.11 1020.98 1020.67 1020.31 1020.05 1019.84 1019.60 1019.16 1018.63 1018.14 1017.73 1017.35 1017.13 1016.71 1016.14 1015.57 1014.94 1014.55 1014.12 1013.50 1013.06 1012.76 1012.44 1011.77 1011.16 1010.58 1010.28 1009.83
1018.39 1018.60 1018.80 1018.93 1019.24 1019.59 1019.94 1020.29 1020.73 1021.07 1021.39 1021.70 1021.78 1021.70 1021.58 1021.28 1021.10 1020.89 1020.62 1020.33 1020.10 1019.99 1019.57 1019.18 1018.88 1018.52 1018.00 1017.52 1017.28 1016.82 1016.13 1015.39 1014.80 1014.33 1013.81 1013.09 1012.24 1011.38 1011.16 1010.67 1010.37 1009.96 1009.54 1009.20
1017.93 1018.45 1018.81 1018.89 1019.21 1019.53 1019.87 1020.37 1020.82 1021.16 1021.52 1021.64 1021.66 1021.66 1021.54 1021.25 1021.04 1020.87 1020.55 1020.33 1020.09 1019.79 1019.40 1019.01 1018.65 1018.38 1018.01 1017.54 1017.10 1016.47 1015.76 1015.07 1014.43 1013.86 1013.20 1012.42 1011.72 1010.93 1009.83 1009.12 1008.78 1008.41 1007.95 1007.57
1018.09 1018.46 1018.78 1018.92 1018.98 1019.39 1019.93 1020.59 1021.08 1021.48 1021.63 1021.60 1021.56 1021.56 1021.33 1021.13 1020.90 1020.68 1020.39 1020.12 1019.75 1019.36 1018.92 1018.53 1018.16 1017.83 1017.48 1017.01 1016.42 1015.82 1015.26 1014.72 1014.17 1013.48 1012.77 1011.98 1011.17 1010.33 1009.58 1008.55 1007.50 1006.70 1006.27 1006.33
1017.73 1018.03 1018.23 1018.63 1019.16 1019.78 1020.34 1020.85 1021.15 1021.26 1021.24 1021.21 1021.19 1021.16 1020.98 1020.77 1020.62 1020.41 1020.13 1019.80 1019.41 1018.94 1018.47 1018.03 1017.52 1017.19 1016.86 1016.35 1015.74 1015.09 1014.51 1013.90 1013.33 1012.67 1011.92 1011.17 1010.43 1009.62 1008.85 1008.05 1007.25 1006.49 1005.92 1005.09
1017.30 1017.77 1018.28 1018.64 1019.15 1019.75 1020.28 1020.69 1020.80 1020.87 1020.90 1020.87 1020.80 1020.60 1020.41 1020.36 1020.23 1020.05 1019.74 1019.45 1019.10 1018.59 1018.14 1017.73 1017.23 1016.84 1016.38 1015.83 1015.22 1014.53 1013.91 1013.40 1012.79 1012.05 1011.17 1010.39 1009.70 1008.95 1008.15 1007.42 1006.67 1005.91 1005.10 1004.32
1017.08 1017.44 1017.81 1018.37 1018.94 1019.56 1019.97 1020.32 1020.55 1020.59 1020.67 1020.72 1020.55 1020.34 1020.12 1019.90 1019.82 1019.52 1019.21 1018.97 1018.65 1018.20 1017.80 1017.55 1017.09 1016.55 1015.99 1015.41 1014.82 1014.10 1013.43 1012.66 1012.10 1011.32 1010.51 1009.79 1009.00 1008.14 1007.34 1006.53 1005.71 1004.83 1004.02 1003.36
1016.51 1016.62 1017.03 1017.64 1018.60 1019.41 1019.99 1020.37 1020.52 1020.55 1020.59 1020.50 1020.44 1020.26 1020.07 1019.82 1019.55 1019.19 1018.82 1018.52 1018.13 1017.70 1017.37 1017.14 1016.68 1016.06 1015.48 1014.94 1014.34 1013.61 1012.80 1012.06 1011.35 1010.53 1009.74 1009.04 1008.26 1007.46 1006.51 1005.59 1004.74 1003.82 1002.96 1002.34
1016.52 1016.82 1017.48 1018.18 1018.97 1019.63 1020.11 1020.40 1020.63 1020.70 1020.54 1020.41 1020.23 1020.01 1019.73 1019.49 1019.15 1018.79 1018.39 1018.17 1017.75 1017.25 1016.79 1016.62 1016.13 1015.58 1014.97 1014.43 1013.92 1013.19 1012.39 1011.70 1010.88 1010.07 1009.38 1008.58 1007.70 1006.86 1005.96 1005.04 1004.13 1003.30 1002.51 1001.79
1016.87 1017.43 1018.04 1018.85 1019.53 1020.05 1020.47 1020.73 1020.93 1020.75 1020.42 1020.21 1020.04 1019.70 1019.36 1018.83 1018.54 1018.34 1018.08 1017.85 1017.51 1017.06 1016.66 1016.32 1015.74 1015.13 1014.58 1014.04 1013.48 1012.76 1012.06 1011.28 1010.40 1009.59 1008.87 1008.12 1007.23 1006.38 1005.54 1004.62 1003.68 1002.85 1002.11 1001.33
1017.04 1017.94 1018.65 1019.34 1019.86 1020.27 1020.67 1020.95 1021.00 1020.66 1020.36 1020.13 1019.96 1019.49 1019.03 1018.50 1017.97 1017.75 1017.60 1017.16 1016.81 1016.49 1016.31 1015.95 1015.40 1014.82 1014.30 1013.76 1013.15 1012.52 1011.81 1011.05 1010.25 1009.46 1008.69 1007.92 1007.08 1006.29 1005.49 1004.68 1003.84 1002.97 1002.20 1001.53
1017.60 1018.41 1019.13 1019.46 1019.98 1020.41 1020.63 1020.66 1020.71 1020.61 1020.30 1020.04 1019.63 1019.23 1018.80 1018.11 1017.49 1017.12 1016.90 1016.75 1016.28 1016.15 1015.96 1015.57 1015.05 1014.58 1014.12 1013.56 1012.89 1012.39 1011.70 1010.95 1010.14 1009.40 1008.65 1007.92 1007.13 1006.34 1005.58 1004.84 1004.08 1003.37 1002.70 1002.05
1018.03 1018.62 1019.12 1019.56 1019.98 1020.27 1020.50 1020.51 1020.46 1020.47 1020.32 1019.89 1019.42 1018.95 1018.51 1017.95 1017.38 1016.91 1016.36 1016.09 1015.96 1015.76 1015.57 1015.22 1014.80 1014.33 1013.83 1013.29 1012.74 1012.20 1011.56 1010.80 1010.02 1009.34 1008.66 1007.96 1007.27 1006.58 1005.86 1005.17 1004.53 1003.89 1003.25 1002.67
1018.42 1018.95 1019.42 1019.78 1020.00 1020.14 1020.21 1020.27 1020.33 1020.18 1019.95 1019.49 1019.10 1018.74 1018.26 1017.58 1016.98 1016.35 1016.21 1015.94 1015.67 1015.42 1015.15 1014.90 1014.52 1014.06 1013.63 1013.11 1012.58 1012.02 1011.43 1010.72 1009.98 1009.32 1008.66 1008.05 1007.44 1006.82 1006.17 1005.56 1004.94 1004.37 1003.83 1003.34
1018.77 1019.23 1019.54 1019.78 1020.01 1020.30 1020.46 1020.40 1020.20 1020.03 1019.77 1019.29 1018.79 1018.36 1018.01 1017.51 1017.03 1016.30 1015.97 1015.67 1015.30 1015.01 1014.74 1014.53 1014.23 1013.80 1013.39 1012.98 1012.53 1012.01 1011.39 1010.75 1010.10 1009.44 1008.79 1008.22 1007.66 1007.09 1006.52 1005.99 1005.46 1004.93 1004.43 1004.03
1019.14 1019.52 1019.85 1020.04 1020.22 1020.32 1020.37 1020.32 1020.19 1020.10 1019.88 1019.41 1018.87 1018.47 1017.96 1017.30 1016.70 1016.14 1015.72 1015.36 1014.87 1014.54 1014.27 1014.14 1013.90 1013.55 1013.15 1012.78 1012.41 1011.96 1011.42 1010.83 1010.18 1009.57 1009.04 1008.48 1007.98 1007.47 1007.01 1006.53 1006.04 1005.63 1005.27 1004.91
1019.56 1019.85 1019.93 1020.04 1020.14 1020.19 1020.23 1020.29 1020.27 1020.02 1019.81 1019.54 1019.03 1018.32 1017.63 1016.99 1016.44 1015.86 1015.44 1014.91 1014.46 1014.08 1013.86 1013.73 1013.58 1013.29 1012.96 1012.66 1012.30 1011.92 1011.46 1010.93 1010.42 1009.85 1009.32 1008.84 1008.39 1007.97 1007.58 1007.20 1006.81 1006.44 1006.13 1005.80
Thickness
5446 5441 5435 5438 5441 5448 5449 5448 5449 5435 5444 5451 5458 5462 5464 5464 5468 5470 5469 5470 5469 5478 5479 5483 5493 5504 5509 5513 5517 5523 5531 5537 5542 5549 5555 5561 5568 5572 5578 5587 5596 5601 5607 5613
5419 5442 5439 5443 5448 5446 5450 5447 5441 5441 5440 5444 5449 5452 5454 5457 5460 5463 5464 5466 5468 5472 5471 5470 5475 5483 5490 5495 5500 5506 5511 5514 5521 5526 5531 5537 5545 5551 5558 5565 5571 5578 5584 5591
5436 5435 5442 5438 5447 5445 5443 5440 5440 5438 5435 5435 5437 5437 5436 5442 5446 5449 5452 5457 5459 5462 5463 5464 5465 5467 5470 5475 5485 5488 5492 5499 5502 5508 5514 5518 5524 5529 5536 5540 5549 5555 5562 5568
5429 5433 5435 5454 5448 5445 5443 5435 5435 5433 5431 5429 5427 5428 5426 5430 5431 5432 5436 5439 5441 5445 5447 5449 5452 5455 5458 5461 5472 5475 5477 5482 5484 5489 5497 5498 5504 5511 5513 5522 5528 5533 5541 5548
5430 5427 5439 5446 5448 5446 5443 5436 5433 5430 5427 5425 5424 5423 5430 5421 5416 5414 5415 5419 5422 5424 5429 5431 5434 5436 5443 5451 5455 5458 5462 5468 5468 5470 5476 5483 5487 5490 5495 5505 5509 5515 5519 5526
5389 5423 5430 5458 5450 5444 5437 5432 5432 5428 5424 5419 5416 5422 5425 5411 5407 5408 5404 5402 5403 5405 5409 5413 5416 5423 5431 5432 5434 5443 5441 5446 5447 5453 5461 5471 5475 5475 5481 5490 5497 5503 5505 5511
5390 5428 5442 5452 5445 5436 5428 5437 5430 5423 5421 5414 5413 5408 5402 5397 5398 5395 5394 5396 5397 5397 5396 5396 5399 5405 5410 5415 5420 5420 5419 5426 5435 5442 5446 5454 5458 5460 5468 5477 5484 5489 5494 5503
5396 5407 5429 5447 5440 5440 5440 5432 5428 5423 5418 5410 5403 5397 5392 5387 5385 5384 5385 5387 5387 5388 5388 5388 5389 5391 5393 5397 5397 5399 5406 5413 5416 5417 5421 5429 5437 5445 5448 5456 5465 5474 5477 5488
5438 5447 5446 5445 5446 5441 5431 5428 5424 5418 5412 5404 5398 5393 5383 5378 5375 5373 5374 5377 5378 5378 5378 5377 5377 5377 5380 5382 5383 5386 5389 5393 5398 5405 5409 5410 5415 5421 5426 5432 5441 5454 5461 5468
5439 5449 5441 5439 5434 5431 5427 5423 5420 5412 5405 5398 5390 5383 5377 5372 5368 5363 5364 5366 5367 5367 5367 5367 5365 5366 5369 5373 5375 5377 5380 5382 5384 5387 5390 5393 5399 5402 5404 5411 5418 5424 5433 5445
5438 5435 5432 5433 5430 5426 5422 5417 5411 5404 5398 5391 5384 5379 5373 5370 5367 5360 5357 5355 5354 5352 5351 5353 5356 5359 5361 5363 5364 5365 5367 5370 5374 5375 5378 5383 5386 5387 5389 5396 5401 5407 5411 5418
5447 5442 5440 5435 5428 5423 5418 5412 5405 5398 5391 5384 5379 5375 5370 5365 5361 5356 5352 5349 5346 5342 5343 5344 5345 5346 5349 5352 5352 5353 5355 5358 5360 5362 5364 5369 5376 5383 5381 5386 5387 5390 5395 5399
5445 5433 5426 5427 5420 5416 5412 5404 5396 5389 5382 5378 5375 5371 5365 5360 5355 5350 5347 5343 5340 5339 5340 5340 5340 5340 5341 5342 5343 5344 5346 5349 5351 5352 5355 5360 5363 5369 5378 5379 5382 5386 5390 5393
5430 5425 5422 5418 5419 5411 5403 5394 5386 5378 5375 5373 5370 5365 5361 5356 5351 5346 5343 5340 5338 5339 5340 5340 5340 5339 5339 5340 5340 5340 5340 5338 5338 5341 5345 5349 5354 5359 5364 5372 5381 5386 5387 5387
5424 5421 5421 5414 5406 5398 5391 5384 5378 5375 5373 5370 5367 5361 5357 5353 5348 5342 5339 5337 5335 5336 5338 5339 5340 5339 5338 5339 5340 5339 5338 5337 5337 5338 5341 5344 5347 5352 5357 5362 5368 5373 5376 5380
5423 5416 5410 5406 5401 5392 5386 5379 5376 5373 5370 5367 5363 5360 5356 5350 5345 5340 5336 5333 5331 5331 5332 5333 5335 5335 5336 5337 5337 5337 5336 5334 5333 5333 5336 5339 5342 5346 5350 5353 5357 5362 5367 5372
5413 5408 5406 5400 5394 5387 5383 5378 5373 5370 5365 5361 5359 5356 5351 5346 5341 5338 5334 5329 5327 5326 5326 5327 5328 5330 5331 5332 5332 5333 5332 5333 5330 5330 5332 5334 5338 5341 5345 5349 5353 5357 5361 5365
5413 5412 5408 5402 5391 5382 5376 5370 5367 5363 5359 5356 5351 5346 5341 5338 5336 5332 5329 5326 5324 5323 5322 5320 5323 5326 5327 5328 5329 5330 5330 5330 5330 5330 5331 5332 5335 5338 5342 5346 5350 5355 5358 5359
5403 5401 5394 5388 5380 5374 5369 5364 5359 5354 5349 5347 5344 5341 5337 5333 5329 5326 5323 5320 5319 5321 5321 5317 5319 5321 5324 5325 5325 5326 5326 5326 5327 5327 5326 5328 5331 5334 5338 5343 5347 5349 5352 5353
5389 5385 5380 5373 5366 5362 5358 5351 5345 5344 5343 5341 5337 5335 5333 5332 5327 5321 5317 5315 5313 5313 5312 5312 5314 5318 5320 5321 5322 5323 5323 5324 5325 5324 5324 5326 5329 5332 5336 5339 5344 5348 5349 5349
5380 5372 5364 5357 5350 5346 5342 5338 5334 5334 5334 5331 5328 5329 5328 5326 5323 5318 5314 5314 5311 5309 5307 5307 5309 5312 5314 5316 5318 5318 5319 5320 5320 5320 5321 5323 5325 5329 5331 5334 5337 5341 5342 5342
5365 5356 5348 5346 5341 5338 5334 5332 5330 5326 5326 5323 5321 5320 5320 5320 5319 5315 5309 5308 5307 5304 5302 5303 5305 5306 5308 5311 5313 5313 5314 5315 5315 5315 5316 5318 5321 5324 5326 5328 5330 5333 5336 5338
5352 5348 5343 5336 5333 5332 5328 5325 5321 5319 5316 5317 5316 5315 5314 5313 5309 5308 5309 5304 5302 5300 5299 5299 5300 5301 5303 5306 5309 5310 5311 5312 5313 5312 5313 5314 5317 5320 5322 5324 5326 5328 5331 5333
5340 5336 5332 5328 5326 5325 5323 5319 5315 5314 5310 5310 5309 5306 5307 5307 5304 5302 5299 5298 5296 5295 5295 5295 5296 5297 5298 5301 5304 5306 5307 5309 5310 5309 5310 5312 5315 5317 5319 5321 5323 5325 5326 5327
5329 5325 5322 5320 5318 5314 5310 5309 5307 5305 5304 5303 5301 5299 5296 5294 5293 5295 5293 5292 5292 5292 5292 5291 5292 5293 5294 5296 5299 5301 5303 5305 5306 5306 5307 5310 5313 5315 5317 5318 5320 5321 5322 5322
5318 5314 5311 5308 5306 5303 5301 5300 5298 5295 5294 5293 5291 5289 5287 5287 5287 5287 5287 5287 5289 5289 5290 5289 5289 5290 5291 5292 5295 5297 5299 5301 5303 5304 5305 5307 5310 5312 5313 5315 5316 5317 5316 5316
5305 5301 5300 5299 5297 5295 5293 5290 5288 5286 5283 5282 5281 5281 5281 5281 5280 5282 5282 5284 5285 5286 5286 5286 5286 5286 5287 5288 5291 5293 5295 5298 5300 5301 5302 5304 5306 5308 5310 5311 5312 5312 5312 5312